Location: Ocean City
(38.3360°N, 75.0850°W)
Time: 13:44:36
(UTC-04:00)

Envisat - Visible Passes

Search period start: 23 October 2019 00:00
Search period end: 02 November 2019 00:00
Orbit: 764 x 766 km, 98.1° (Epoch: 23 October)

Date Brightness Start Highest point End Pass type
(mag) Time Alt. Az. Time Alt. Az. Time Alt. Az.
23 Oct 5.1 19:58:54 10° SSW 20:03:13 28° W 20:07:35 10° NW visible
24 Oct 6.6 06:32:19 10° ENE 06:34:00 11° E 06:35:40 10° ESE visible
24 Oct 3.4 19:21:18 10° S 19:26:20 65° W 19:31:24 10° NNW visible
25 Oct 3.1 18:44:41 10° SSE 18:49:37 55° ENE 18:54:35 10° N visible
25 Oct 5.9 20:25:57 10° SW 20:28:57 16° W 20:31:58 10° NW visible
26 Oct 4.6 19:47:16 10° SSW 19:51:54 36° W 19:56:34 10° NNW visible
27 Oct 3.1 19:10:00 10° SSE 19:15:03 83° WSW 19:20:10 10° NNW visible
28 Oct 3.3 18:33:38 10° SE 18:38:24 43° ENE 18:43:12 10° N visible
28 Oct 5.6 20:13:54 10° SW 20:17:35 20° W 20:21:17 10° NW visible
29 Oct 6.1 06:45:10 10° NE 06:48:24 17° E 06:51:36 10° SE visible
29 Oct 4.1 19:35:45 10° S 19:40:36 46° W 19:45:29 10° NNW visible
30 Oct 2.9 18:58:45 10° SSE 19:03:48 77° ENE 19:08:53 10° N visible
30 Oct 6.3 20:42:15 10° WSW 20:43:21 11° W 20:44:27 10° WNW visible
31 Oct 3.6 18:22:40 10° SE 18:27:13 34° ENE 18:31:45 10° N visible
31 Oct 5.2 20:02:04 10° SSW 20:06:14 26° W 20:10:26 10° NW visible
01 Nov 6.4 06:34:45 10° ENE 06:37:01 13° E 06:39:15 10° ESE visible
01 Nov 3.6 19:24:19 10° S 19:29:18 59° W 19:34:20 10° NNW visible
